Data supplied by UK-AIR on 8/9/2010
All Data GMT hour ending  NB:  Upto 26/05/2008 PM10 were measured with a Standard TEOM, from 01/01/2008 PM10 were measured with a VCM TEOM
Status: R =Ratified P=Provisional,P*=As supplied
,,London Bexley,,,,,,,,,,,,,,,,,,,,,,,
Date,time,"Carbon monoxide",status,unit,"PM10 particulate matter (Hourly measured)",status,unit,"Nitric oxide",status,unit,"Nitrogen dioxide",status,unit,"Nitrogen oxides as nitrogen dioxide",status,unit,"Non-volatile PM2.5 (Hourly measured)",status,unit,"PM2.5 particulate matter (Hourly measured)",status,unit,"Sulphur dioxide",status,unit,"Volatile PM2.5 (Hourly measured)",status,unit
 
01-01-2008,01:00,0.2,R,mgm-3,34,R,ugm-3 (VCM),3,R,ugm-3,44,R,ugm-3,48,R,ugm-3,,,,,,,0,R,ugm-3,,,
01-01-2008,02:00,0.3,R,mgm-3,39,R,ugm-3 (VCM),10,R,ugm-3,53,R,ugm-3,69,R,ugm-3,,,,,,,0,R,ugm-3,,,
01-01-2008,03:00,0.2,R,mgm-3,29,R,ugm-3 (VCM),4,R,ugm-3,40,R,ugm-3,46,R,ugm-3,,,,,,,0,R,ugm-3,,,
01-01-2008,04:00,0.3,R,mgm-3,18,R,ugm-3 (VCM),1,R,ugm-3,34,R,ugm-3,36,R,ugm-3,,,,,,,0,R,ugm-3,,,
01-01-2008,05:00,0.7,R,mgm-3,19,R,ugm-3 (VCM),4,R,ugm-3,23,R,ugm-3,29,R,ugm-3,,,,,,,0,R,ugm-3,,,
01-01-2008,06:00,0.3,R,mgm-3,17,R,ugm-3 (VCM),3,R,ugm-3,29,R,ugm-3,32,R,ugm-3,,,,,,,0,R,ugm-3,,,
01-01-2008,07:00,0.3,R,mgm-3,16,R,ugm-3 (VCM),11,R,ugm-3,42,R,ugm-3,59,R,ugm-3,,,,,,,0,R,ugm-3,,,
01-01-2008,08:00,0.5,R,mgm-3,16,R,ugm-3 (VCM),20,R,ugm-3,48,R,ugm-3,78,R,ugm-3,,,,,,,0,R,ugm-3,,,
01-01-2008,09:00,0.3,R,mgm-3,15,R,ugm-3 (VCM),36,R,ugm-3,42,R,ugm-3,97,R,ugm-3,,,,,,,0,R,ugm-3,,,
01-01-2008,10:00,0.3,R,mgm-3,18,R,ugm-3 (VCM),44,R,ugm-3,46,R,ugm-3,113,R,ugm-3,,,,,,,0,R,ugm-3,,,
01-01-2008,11:00,0.3,R,mgm-3,15,R,ugm-3 (VCM),30,R,ugm-3,44,R,ugm-3,90,R,ugm-3,,,,,,,0,R,ugm-3,,,
01-01-2008,12:00,0.6,R,mgm-3,14,R,ugm-3 (VCM),13,R,ugm-3,38,R,ugm-3,57,R,ugm-3,,,,,,,0,R,ugm-3,,,
01-01-2008,13:00,0.9,R,mgm-3,17,R,ugm-3 (VCM),16,R,ugm-3,38,R,ugm-3,63,R,ugm-3,,,,,,,0,R,ugm-3,,,
01-01-2008,14:00,0.3,R,mgm-3,18,R,ugm-3 (VCM),9,R,ugm-3,40,R,ugm-3,53,R,ugm-3,,,,,,,0,R,ugm-3,,,
01-01-2008,15:00,0.7,R,mgm-3,14,R,ugm-3 (VCM),6,R,ugm-3,36,R,ugm-3,46,R,ugm-3,,,,,,,0,R,ugm-3,,,
01-01-2008,16:00,0.6,R,mgm-3,17,R,ugm-3 (VCM),5,R,ugm-3,46,R,ugm-3,53,R,ugm-3,,,,,,,0,R,ugm-3,,,
01-01-2008,17:00,0.3,R,mgm-3,22,R,ugm-3 (VCM),11,R,ugm-3,55,R,ugm-3,73,R,ugm-3,,,,,,,0,R,ugm-3,,,
01-01-2008,18:00,0.3,R,mgm-3,21,R,ugm-3 (VCM),10,R,ugm-3,57,R,ugm-3,73,R,ugm-3,,,,,,,0,R,ugm-3,,,
01-01-2008,19:00,0.5,R,mgm-3,23,R,ugm-3 (VCM),25,R,ugm-3,63,R,ugm-3,101,R,ugm-3,,,,,,,0,R,ugm-3,,,
01-01-2008,20:00,0.3,R,mgm-3,26,R,ugm-3 (VCM),31,R,ugm-3,65,R,ugm-3,113,R,ugm-3,,,,,,,3,R,ugm-3,,,
01-01-2008,21:00,0.2,R,mgm-3,17,R,ugm-3 (VCM),9,R,ugm-3,59,R,ugm-3,73,R,ugm-3,,,,,,,3,R,ugm-3,,,
01-01-2008,22:00,0.5,R,mgm-3,20,R,ugm-3 (VCM),20,R,ugm-3,67,R,ugm-3,97,R,ugm-3,,,,,,,0,R,ugm-3,,,
01-01-2008,23:00,0.3,R,mgm-3,24,R,ugm-3 (VCM),29,R,ugm-3,50,R,ugm-3,94,R,ugm-3,,,,,,,0,R,ugm-3,,,
01-01-2008,24:00,0.3,R,mgm-3,24,R,ugm-3 (VCM),33,R,ugm-3,48,R,ugm-3,97,R,ugm-3,,,,,,,3,R,ugm-3,,,
02-01-2008,01:00,0.2,R,mgm-3,26,R,ugm-3 (VCM),16,R,ugm-3,44,R,ugm-3,69,R,ugm-3,,,,,,,3,R,ugm-3,,,
02-01-2008,02:00,0.1,R,mgm-3,22,R,ugm-3 (VCM),1,R,ugm-3,19,R,ugm-3,21,R,ugm-3,,,,,,,0,R,ugm-3,,,
02-01-2008,03:00,0.1,R,mgm-3,22,R,ugm-3 (VCM),0,R,ugm-3,17,R,ugm-3,17,R,ugm-3,,,,,,,0,R,ugm-3,,,
02-01-2008,04:00,0.2,R,mgm-3,25,R,ugm-3 (VCM),0,R,ugm-3,21,R,ugm-3,21,R,ugm-3,,,,,,,0,R,ugm-3,,,
02-01-2008,05:00,0.2,R,mgm-3,25,R,ugm-3 (VCM),1,R,ugm-3,27,R,ugm-3,29,R,ugm-3,,,,,,,0,R,ugm-3,,,
02-01-2008,06:00,0.2,R,mgm-3,27,R,ugm-3 (VCM),5,R,ugm-3,36,R,ugm-3,44,R,ugm-3,,,,,,,0,R,ugm-3,,,
02-01-2008,07:00,0.2,R,mgm-3,26,R,ugm-3 (VCM),5,R,ugm-3,32,R,ugm-3,40,R,ugm-3,,,,,,,0,R,ugm-3,,,
02-01-2008,08:00,0.1,R,mgm-3,16,R,ugm-3 (VCM),4,R,ugm-3,32,R,ugm-3,38,R,ugm-3,,,,,,,0,R,ugm-3,,,
02-01-2008,09:00,0.2,R,mgm-3,16,R,ugm-3 (VCM),4,R,ugm-3,31,R,ugm-3,36,R,ugm-3,,,,,,,0,R,ugm-3,,,
02-01-2008,10:00,0.2,R,mgm-3,20,R,ugm-3 (VCM),5,R,ugm-3,31,R,ugm-3,38,R,ugm-3,,,,,,,0,R,ugm-3,,,
02-01-2008,11:00,0.2,R,mgm-3,25,R,ugm-3 (VCM),9,R,ugm-3,29,R,ugm-3,42,R,ugm-3,,,,,,,0,R,ugm-3,,,
02-01-2008,12:00,0.2,R,mgm-3,26,R,ugm-3 (VCM),10,R,ugm-3,31,R,ugm-3,46,R,ugm-3,,,,,,,0,R,ugm-3,,,
02-01-2008,13:00,0.2,R,mgm-3,29,R,ugm-3 (VCM),20,R,ugm-3,36,R,ugm-3,67,R,ugm-3,,,,,,,3,R,ugm-3,,,
02-01-2008,14:00,0.1,R,mgm-3,23,R,ugm-3 (VCM),8,R,ugm-3,23,R,ugm-3,34,R,ugm-3,,,,,,,0,R,ugm-3,,,
02-01-2008,15:00,0.1,R,mgm-3,25,R,ugm-3 (VCM),5,R,ugm-3,25,R,ugm-3,32,R,ugm-3,,,,,,,0,R,ugm-3,,,
02-01-2008,16:00,0.2,R,mgm-3,43,R,ugm-3 (VCM),4,R,ugm-3,31,R,ugm-3,36,R,ugm-3,,,,,,,0,R,ugm-3,,,
02-01-2008,17:00,0.1,R,mgm-3,22,R,ugm-3 (VCM),4,R,ugm-3,46,R,ugm-3,52,R,ugm-3,,,,,,,0,R,ugm-3,,,
02-01-2008,18:00,0.2,R,mgm-3,26,R,ugm-3 (VCM),5,R,ugm-3,46,R,ugm-3,53,R,ugm-3,,,,,,,0,R,ugm-3,,,
02-01-2008,19:00,0.2,R,mgm-3,30,R,ugm-3 (VCM),14,R,ugm-3,59,R,ugm-3,80,R,ugm-3,,,,,,,0,R,ugm-3,,,
02-01-2008,20:00,0.2,R,mgm-3,28,R,ugm-3 (VCM),19,R,ugm-3,59,R,ugm-3,88,R,ugm-3,,,,,,,3,R,ugm-3,,,
02-01-2008,21:00,0.3,R,mgm-3,31,R,ugm-3 (VCM),5,R,ugm-3,52,R,ugm-3,59,R,ugm-3,,,,,,,3,R,ugm-3,,,
02-01-2008,22:00,0.3,R,mgm-3,27,R,ugm-3 (VCM),5,R,ugm-3,46,R,ugm-3,53,R,ugm-3,,,,,,,0,R,ugm-3,,,
02-01-2008,23:00,0.2,R,mgm-3,27,R,ugm-3 (VCM),9,R,ugm-3,52,R,ugm-3,65,R,ugm-3,,,,,,,3,R,ugm-3,,,
02-01-2008,24:00,0.3,R,mgm-3,27,R,ugm-3 (VCM),5,R,ugm-3,44,R,ugm-3,52,R,ugm-3,,,,,,,3,R,ugm-3,,,
03-01-2008,01:00,0.2,R,mgm-3,26,R,ugm-3 (VCM),1,R,ugm-3,25,R,ugm-3,27,R,ugm-3,,,,,,,0,R,ugm-3,,,
03-01-2008,02:00,0.2,R,mgm-3,25,R,ugm-3 (VCM),1,R,ugm-3,25,R,ugm-3,27,R,ugm-3,,,,,,,0,R,ugm-3,,,
03-01-2008,03:00,0.2,R,mgm-3,27,R,ugm-3 (VCM),3,R,ugm-3,27,R,ugm-3,31,R,ugm-3,,,,,,,0,R,ugm-3,,,
03-01-2008,04:00,0.2,R,mgm-3,24,R,ugm-3 (VCM),1,R,ugm-3,25,R,ugm-3,27,R,ugm-3,,,,,,,0,R,ugm-3,,,
03-01-2008,05:00,0.2,R,mgm-3,26,R,ugm-3 (VCM),6,R,ugm-3,42,R,ugm-3,52,R,ugm-3,,,,,,,3,R,ugm-3,,,
03-01-2008,06:00,0.2,R,mgm-3,28,R,ugm-3 (VCM),5,R,ugm-3,46,R,ugm-3,53,R,ugm-3,,,,,,,3,R,ugm-3,,,
03-01-2008,07:00,0.2,R,mgm-3,24,R,ugm-3 (VCM),9,R,ugm-3,48,R,ugm-3,61,R,ugm-3,,,,,,,3,R,ugm-3,,,
03-01-2008,08:00,0.2,R,mgm-3,25,R,ugm-3 (VCM),5,R,ugm-3,40,R,ugm-3,48,R,ugm-3,,,,,,,3,R,ugm-3,,,
03-01-2008,09:00,0.2,R,mgm-3,24,R,ugm-3 (VCM),10,R,ugm-3,52,R,ugm-3,67,R,ugm-3,,,,,,,3,R,ugm-3,,,
03-01-2008,10:00,0.2,R,mgm-3,30,R,ugm-3 (VCM),18,R,ugm-3,48,R,ugm-3,74,R,ugm-3,,,,,,,5,R,ugm-3,,,
03-01-2008,11:00,0.3,R,mgm-3,29,R,ugm-3 (VCM),18,R,ugm-3,42,R,ugm-3,69,R,ugm-3,,,,,,,5,R,ugm-3,,,
03-01-2008,12:00,0.2,R,mgm-3,31,R,ugm-3 (VCM),16,R,ugm-3,42,R,ugm-3,67,R,ugm-3,,,,,,,3,R,ugm-3,,,
03-01-2008,13:00,0.3,R,mgm-3,31,R,ugm-3 (VCM),16,R,ugm-3,40,R,ugm-3,65,R,ugm-3,,,,,,,5,R,ugm-3,,,
03-01-2008,14:00,,,,29,R,ugm-3 (VCM),,,,,,,,,,,,,,,,,,,,,
03-01-2008,15:00,0.2,R,mgm-3,27,R,ugm-3 (VCM),23,R,ugm-3,48,R,ugm-3,82,R,ugm-3,,,,,,,3,R,ugm-3,,,
03-01-2008,16:00,0.3,R,mgm-3,28,R,ugm-3 (VCM),34,R,ugm-3,48,R,ugm-3,99,R,ugm-3,,,,,,,5,R,ugm-3,,,
03-01-2008,17:00,0.3,R,mgm-3,29,R,ugm-3 (VCM),16,R,ugm-3,48,R,ugm-3,73,R,ugm-3,,,,,,,3,R,ugm-3,,,
03-01-2008,18:00,0.3,R,mgm-3,33,R,ugm-3 (VCM),23,R,ugm-3,48,R,ugm-3,82,R,ugm-3,,,,,,,5,R,ugm-3,,,
03-01-2008,19:00,0.3,R,mgm-3,38,R,ugm-3 (VCM),33,R,ugm-3,46,R,ugm-3,96,R,ugm-3,,,,,,,5,R,ugm-3,,,
03-01-2008,20:00,0.5,R,mgm-3,41,R,ugm-3 (VCM),30,R,ugm-3,48,R,ugm-3,94,R,ugm-3,,,,,,,5,R,ugm-3,,,
03-01-2008,21:00,0.5,R,mgm-3,37,R,ugm-3 (VCM),25,R,ugm-3,48,R,ugm-3,86,R,ugm-3,,,,,,,5,R,ugm-3,,,
03-01-2008,22:00,0.3,R,mgm-3,36,R,ugm-3 (VCM),14,R,ugm-3,48,R,ugm-3,69,R,ugm-3,,,,,,,3,R,ugm-3,,,
03-01-2008,23:00,0.3,R,mgm-3,34,R,ugm-3 (VCM),9,R,ugm-3,48,R,ugm-3,61,R,ugm-3,,,,,,,3,R,ugm-3,,,
03-01-2008,24:00,0.3,R,mgm-3,34,R,ugm-3 (VCM),20,R,ugm-3,48,R,ugm-3,78,R,ugm-3,,,,,,,3,R,ugm-3,,,
04-01-2008,01:00,0.5,R,mgm-3,37,R,ugm-3 (VCM),19,R,ugm-3,48,R,ugm-3,76,R,ugm-3,,,,,,,0,R,ugm-3,,,
04-01-2008,02:00,0.5,R,mgm-3,37,R,ugm-3 (VCM),9,R,ugm-3,48,R,ugm-3,61,R,ugm-3,,,,,,,0,R,ugm-3,,,
04-01-2008,03:00,0.5,R,mgm-3,36,R,ugm-3 (VCM),14,R,ugm-3,50,R,ugm-3,71,R,ugm-3,,,,,,,0,R,ugm-3,,,
04-01-2008,04:00,0.5,R,mgm-3,34,R,ugm-3 (VCM),9,R,ugm-3,48,R,ugm-3,61,R,ugm-3,,,,,,,0,R,ugm-3,,,
04-01-2008,05:00,0.6,R,mgm-3,37,R,ugm-3 (VCM),19,R,ugm-3,48,R,ugm-3,76,R,ugm-3,,,,,,,0,R,ugm-3,,,
04-01-2008,06:00,0.5,R,mgm-3,36,R,ugm-3 (VCM),23,R,ugm-3,48,R,ugm-3,82,R,ugm-3,,,,,,,0,R,ugm-3,,,
04-01-2008,07:00,0.6,R,mgm-3,41,R,ugm-3 (VCM),59,R,ugm-3,55,R,ugm-3,145,R,ugm-3,,,,,,,0,R,ugm-3,,,
04-01-2008,08:00,0.6,R,mgm-3,46,R,ugm-3 (VCM),114,R,ugm-3,59,R,ugm-3,233,R,ugm-3,,,,,,,3,R,ugm-3,,,
04-01-2008,09:00,0.7,R,mgm-3,38,R,ugm-3 (VCM),73,R,ugm-3,53,R,ugm-3,164,R,ugm-3,,,,,,,3,R,ugm-3,,,
04-01-2008,10:00,0.6,R,mgm-3,40,R,ugm-3 (VCM),68,R,ugm-3,55,R,ugm-3,159,R,ugm-3,,,,,,,3,R,ugm-3,,,
04-01-2008,11:00,0.7,R,mgm-3,34,R,ugm-3 (VCM),34,R,ugm-3,40,R,ugm-3,92,R,ugm-3,,,,,,,3,R,ugm-3,,,
04-01-2008,12:00,1.0,R,mgm-3,33,R,ugm-3 (VCM),30,R,ugm-3,44,R,ugm-3,90,R,ugm-3,,,,,,,3,R,ugm-3,,,
04-01-2008,13:00,0.7,R,mgm-3,31,R,ugm-3 (VCM),28,R,ugm-3,44,R,ugm-3,86,R,ugm-3,,,,,,,3,R,ugm-3,,,
04-01-2008,14:00,0.9,R,mgm-3,25,R,ugm-3 (VCM),13,R,ugm-3,36,R,ugm-3,55,R,ugm-3,,,,,,,0,R,ugm-3,,,
04-01-2008,15:00,0.9,R,mgm-3,23,R,ugm-3 (VCM),18,R,ugm-3,38,R,ugm-3,65,R,ugm-3,,,,,,,0,R,ugm-3,,,
04-01-2008,16:00,0.3,R,mgm-3,19,R,ugm-3 (VCM),14,R,ugm-3,34,R,ugm-3,55,R,ugm-3,,,,,,,3,R,ugm-3,,,
04-01-2008,17:00,0.2,R,mgm-3,20,R,ugm-3 (VCM),6,R,ugm-3,29,R,ugm-3,38,R,ugm-3,,,,,,,0,R,ugm-3,,,
04-01-2008,18:00,0.2,R,mgm-3,21,R,ugm-3 (VCM),5,R,ugm-3,27,R,ugm-3,34,R,ugm-3,,,,,,,0,R,ugm-3,,,
04-01-2008,19:00,,,,,,,,,,,,,,,,,,,,,,,,,,,
04-01-2008,20:00,0.1,R,mgm-3,,,,3,R,ugm-3,19,R,ugm-3,23,R,ugm-3,,,,,,,3,R,ugm-3,,,
04-01-2008,21:00,0.1,R,mgm-3,11,R,ugm-3 (VCM),1,R,ugm-3,15,R,ugm-3,17,R,ugm-3,,,,,,,0,R,ugm-3,,,
04-01-2008,22:00,0.1,R,mgm-3,7,R,ugm-3 (VCM),1,R,ugm-3,10,R,ugm-3,11,R,ugm-3,,,,,,,0,R,ugm-3,,,
04-01-2008,23:00,0.1,R,mgm-3,7,R,ugm-3 (VCM),1,R,ugm-3,10,R,ugm-3,11,R,ugm-3,,,,,,,0,R,ugm-3,,,
04-01-2008,24:00,0.1,R,mgm-3,6,R,ugm-3 (VCM),3,R,ugm-3,8,R,ugm-3,11,R,ugm-3,,,,,,,0,R,ugm-3,,,
05-01-2008,01:00,0.1,R,mgm-3,14,R,ugm-3 (VCM),1,R,ugm-3,6,R,ugm-3,8,R,ugm-3,,,,,,,0,R,ugm-3,,,
05-01-2008,02:00,0.1,R,mgm-3,14,R,ugm-3 (VCM),1,R,ugm-3,8,R,ugm-3,10,R,ugm-3,,,,,,,0,R,ugm-3,,,
05-01-2008,03:00,0.1,R,mgm-3,13,R,ugm-3 (VCM),1,R,ugm-3,6,R,ugm-3,8,R,ugm-3,,,,,,,0,R,ugm-3,,,
05-01-2008,04:00,0.1,R,mgm-3,16,R,ugm-3 (VCM),1,R,ugm-3,6,R,ugm-3,8,R,ugm-3,,,,,,,0,R,ugm-3,,,
05-01-2008,05:00,0.2,R,mgm-3,18,R,ugm-3 (VCM),1,R,ugm-3,6,R,ugm-3,8,R,ugm-3,,,,,,,0,R,ugm-3,,,
05-01-2008,06:00,0.2,R,mgm-3,17,R,ugm-3 (VCM),3,R,ugm-3,10,R,ugm-3,13,R,ugm-3,,,,,,,0,R,ugm-3,,,
05-01-2008,07:00,0.2,R,mgm-3,20,R,ugm-3 (VCM),3,R,ugm-3,13,R,ugm-3,17,R,ugm-3,,,,,,,0,R,ugm-3,,,
05-01-2008,08:00,0.2,R,mgm-3,17,R,ugm-3 (VCM),3,R,ugm-3,19,R,ugm-3,23,R,ugm-3,,,,,,,0,R,ugm-3,,,
05-01-2008,09:00,0.2,R,mgm-3,11,R,ugm-3 (VCM),3,R,ugm-3,15,R,ugm-3,19,R,ugm-3,,,,,,,0,R,ugm-3,,,
05-01-2008,10:00,0.2,R,mgm-3,7,R,ugm-3 (VCM),3,R,ugm-3,17,R,ugm-3,21,R,ugm-3,,,,,,,0,R,ugm-3,,,
05-01-2008,11:00,0.2,R,mgm-3,8,R,ugm-3 (VCM),4,R,ugm-3,17,R,ugm-3,23,R,ugm-3,,,,,,,0,R,ugm-3,,,
05-01-2008,12:00,0.2,R,mgm-3,17,R,ugm-3 (VCM),6,R,ugm-3,21,R,ugm-3,31,R,ugm-3,,,,,,,0,R,ugm-3,,,
05-01-2008,13:00,0.2,R,mgm-3,27,R,ugm-3 (VCM),4,R,ugm-3,21,R,ugm-3,27,R,ugm-3,,,,,,,0,R,ugm-3,,,
05-01-2008,14:00,0.2,R,mgm-3,24,R,ugm-3 (VCM),5,R,ugm-3,29,R,ugm-3,36,R,ugm-3,,,,,,,0,R,ugm-3,,,
05-01-2008,15:00,0.3,R,mgm-3,16,R,ugm-3 (VCM),4,R,ugm-3,31,R,ugm-3,36,R,ugm-3,,,,,,,0,R,ugm-3,,,
05-01-2008,16:00,0.3,R,mgm-3,15,R,ugm-3 (VCM),4,R,ugm-3,31,R,ugm-3,36,R,ugm-3,,,,,,,0,R,ugm-3,,,
05-01-2008,17:00,0.3,R,mgm-3,15,R,ugm-3 (VCM),5,R,ugm-3,40,R,ugm-3,48,R,ugm-3,,,,,,,0,R,ugm-3,,,
05-01-2008,18:00,0.3,R,mgm-3,13,R,ugm-3 (VCM),5,R,ugm-3,40,R,ugm-3,48,R,ugm-3,,,,,,,0,R,ugm-3,,,
05-01-2008,19:00,0.5,R,mgm-3,20,R,ugm-3 (VCM),8,R,ugm-3,57,R,ugm-3,69,R,ugm-3,,,,,,,0,R,ugm-3,,,
05-01-2008,20:00,0.5,R,mgm-3,20,R,ugm-3 (VCM),11,R,ugm-3,63,R,ugm-3,80,R,ugm-3,,,,,,,0,R,ugm-3,,,
05-01-2008,21:00,0.3,R,mgm-3,18,R,ugm-3 (VCM),5,R,ugm-3,61,R,ugm-3,69,R,ugm-3,,,,,,,0,R,ugm-3,,,
05-01-2008,22:00,0.3,R,mgm-3,13,R,ugm-3 (VCM),4,R,ugm-3,52,R,ugm-3,57,R,ugm-3,,,,,,,0,R,ugm-3,,,
05-01-2008,23:00,0.3,R,mgm-3,14,R,ugm-3 (VCM),4,R,ugm-3,48,R,ugm-3,53,R,ugm-3,,,,,,,0,R,ugm-3,,,
05-01-2008,24:00,0.5,R,mgm-3,11,R,ugm-3 (VCM),3,R,ugm-3,40,R,ugm-3,44,R,ugm-3,,,,,,,0,R,ugm-3,,,
06-01-2008,01:00,0.3,R,mgm-3,10,R,ugm-3 (VCM),3,R,ugm-3,38,R,ugm-3,42,R,ugm-3,,,,,,,3,R,ugm-3,,,
06-01-2008,02:00,0.3,R,mgm-3,9,R,ugm-3 (VCM),1,R,ugm-3,29,R,ugm-3,31,R,ugm-3,,,,,,,0,R,ugm-3,,,
06-01-2008,03:00,0.2,R,mgm-3,9,R,ugm-3 (VCM),1,R,ugm-3,17,R,ugm-3,19,R,ugm-3,,,,,,,0,R,ugm-3,,,
06-01-2008,04:00,0.2,R,mgm-3,10,R,ugm-3 (VCM),1,R,ugm-3,17,R,ugm-3,19,R,ugm-3,,,,,,,0,R,ugm-3,,,
06-01-2008,05:00,0.2,R,mgm-3,11,R,ugm-3 (VCM),1,R,ugm-3,19,R,ugm-3,21,R,ugm-3,,,,,,,0,R,ugm-3,,,
06-01-2008,06:00,0.2,R,mgm-3,13,R,ugm-3 (VCM),1,R,ugm-3,19,R,ugm-3,21,R,ugm-3,,,,,,,0,R,ugm-3,,,
06-01-2008,07:00,0.2,R,mgm-3,12,R,ugm-3 (VCM),1,R,ugm-3,23,R,ugm-3,25,R,ugm-3,,,,,,,0,R,ugm-3,,,
06-01-2008,08:00,0.2,R,mgm-3,13,R,ugm-3 (VCM),3,R,ugm-3,27,R,ugm-3,31,R,ugm-3,,,,,,,0,R,ugm-3,,,
06-01-2008,09:00,0.2,R,mgm-3,13,R,ugm-3 (VCM),4,R,ugm-3,40,R,ugm-3,46,R,ugm-3,,,,,,,0,R,ugm-3,,,
06-01-2008,10:00,0.3,R,mgm-3,14,R,ugm-3 (VCM),8,R,ugm-3,36,R,ugm-3,48,R,ugm-3,,,,,,,0,R,ugm-3,,,
06-01-2008,11:00,0.3,R,mgm-3,17,R,ugm-3 (VCM),9,R,ugm-3,31,R,ugm-3,44,R,ugm-3,,,,,,,0,R,ugm-3,,,
06-01-2008,12:00,0.3,R,mgm-3,20,R,ugm-3 (VCM),10,R,ugm-3,25,R,ugm-3,40,R,ugm-3,,,,,,,0,R,ugm-3,,,
06-01-2008,13:00,0.2,R,mgm-3,20,R,ugm-3 (VCM),5,R,ugm-3,17,R,ugm-3,25,R,ugm-3,,,,,,,0,R,ugm-3,,,
06-01-2008,14:00,0.2,R,mgm-3,18,R,ugm-3 (VCM),5,R,ugm-3,17,R,ugm-3,25,R,ugm-3,,,,,,,0,R,ugm-3,,,
06-01-2008,15:00,0.2,R,mgm-3,23,R,ugm-3 (VCM),6,R,ugm-3,29,R,ugm-3,38,R,ugm-3,,,,,,,0,R,ugm-3,,,
06-01-2008,16:00,0.5,R,mgm-3,20,R,ugm-3 (VCM),9,R,ugm-3,50,R,ugm-3,63,R,ugm-3,,,,,,,0,R,ugm-3,,,
06-01-2008,17:00,0.5,R,mgm-3,23,R,ugm-3 (VCM),15,R,ugm-3,65,R,ugm-3,88,R,ugm-3,,,,,,,0,R,ugm-3,,,
06-01-2008,18:00,0.5,R,mgm-3,24,R,ugm-3 (VCM),16,R,ugm-3,67,R,ugm-3,92,R,ugm-3,,,,,,,3,R,ugm-3,,,
06-01-2008,19:00,0.2,R,mgm-3,21,R,ugm-3 (VCM),6,R,ugm-3,40,R,ugm-3,50,R,ugm-3,,,,,,,3,R,ugm-3,,,
06-01-2008,20:00,0.2,R,mgm-3,19,R,ugm-3 (VCM),4,R,ugm-3,25,R,ugm-3,31,R,ugm-3,,,,,,,3,R,ugm-3,,,
06-01-2008,21:00,0.2,R,mgm-3,18,R,ugm-3 (VCM),4,R,ugm-3,19,R,ugm-3,25,R,ugm-3,,,,,,,3,R,ugm-3,,,
06-01-2008,22:00,0.2,R,mgm-3,9,R,ugm-3 (VCM),1,R,ugm-3,11,R,ugm-3,13,R,ugm-3,,,,,,,3,R,ugm-3,,,
06-01-2008,23:00,0.2,R,mgm-3,6,R,ugm-3 (VCM),1,R,ugm-3,10,R,ugm-3,11,R,ugm-3,,,,,,,3,R,ugm-3,,,
06-01-2008,24:00,0.2,R,mgm-3,11,R,ugm-3 (VCM),1,R,ugm-3,10,R,ugm-3,11,R,ugm-3,,,,,,,3,R,ugm-3,,,
07-01-2008,01:00,0.1,R,mgm-3,16,R,ugm-3 (VCM),1,R,ugm-3,6,R,ugm-3,8,R,ugm-3,,,,,,,3,R,ugm-3,,,
07-01-2008,02:00,0.2,R,mgm-3,21,R,ugm-3 (VCM),1,R,ugm-3,4,R,ugm-3,6,R,ugm-3,,,,,,,0,R,ugm-3,,,
07-01-2008,03:00,0.1,R,mgm-3,21,R,ugm-3 (VCM),1,R,ugm-3,2,R,ugm-3,4,R,ugm-3,,,,,,,0,R,ugm-3,,,
07-01-2008,04:00,0.1,R,mgm-3,15,R,ugm-3 (VCM),1,R,ugm-3,2,R,ugm-3,4,R,ugm-3,,,,,,,0,R,ugm-3,,,
07-01-2008,05:00,0.2,R,mgm-3,8,R,ugm-3 (VCM),1,R,ugm-3,4,R,ugm-3,6,R,ugm-3,,,,,,,0,R,ugm-3,,,
07-01-2008,06:00,0.2,R,mgm-3,8,R,ugm-3 (VCM),1,R,ugm-3,6,R,ugm-3,8,R,ugm-3,,,,,,,0,R,ugm-3,,,
07-01-2008,07:00,0.2,R,mgm-3,12,R,ugm-3 (VCM),3,R,ugm-3,11,R,ugm-3,15,R,ugm-3,,,,,,,0,R,ugm-3,,,
07-01-2008,08:00,0.2,R,mgm-3,13,R,ugm-3 (VCM),4,R,ugm-3,17,R,ugm-3,23,R,ugm-3,,,,,,,0,R,ugm-3,,,
07-01-2008,09:00,0.2,R,mgm-3,18,R,ugm-3 (VCM),5,R,ugm-3,23,R,ugm-3,31,R,ugm-3,,,,,,,0,R,ugm-3,,,
07-01-2008,10:00,0.2,R,mgm-3,19,R,ugm-3 (VCM),11,R,ugm-3,27,R,ugm-3,44,R,ugm-3,,,,,,,0,R,ugm-3,,,
07-01-2008,11:00,0.2,R,mgm-3,23,R,ugm-3 (VCM),6,R,ugm-3,19,R,ugm-3,29,R,ugm-3,,,,,,,0,R,ugm-3,,,
07-01-2008,12:00,0.2,R,mgm-3,26,R,ugm-3 (VCM),10,R,ugm-3,25,R,ugm-3,40,R,ugm-3,,,,,,,0,R,ugm-3,,,
07-01-2008,13:00,0.2,R,mgm-3,21,R,ugm-3 (VCM),5,R,ugm-3,23,R,ugm-3,31,R,ugm-3,,,,,,,0,R,ugm-3,,,
07-01-2008,14:00,0.2,R,mgm-3,11,R,ugm-3 (VCM),10,R,ugm-3,34,R,ugm-3,50,R,ugm-3,,,,,,,0,R,ugm-3,,,
07-01-2008,15:00,0.2,R,mgm-3,7,R,ugm-3 (VCM),14,R,ugm-3,29,R,ugm-3,50,R,ugm-3,,,,,,,0,R,ugm-3,,,
07-01-2008,16:00,0.2,R,mgm-3,10,R,ugm-3 (VCM),20,R,ugm-3,27,R,ugm-3,57,R,ugm-3,,,,,,,3,R,ugm-3,,,
07-01-2008,17:00,0.3,R,mgm-3,13,R,ugm-3 (VCM),3,R,ugm-3,27,R,ugm-3,31,R,ugm-3,,,,,,,0,R,ugm-3,,,
07-01-2008,18:00,0.3,R,mgm-3,23,R,ugm-3 (VCM),4,R,ugm-3,32,R,ugm-3,38,R,ugm-3,,,,,,,0,R,ugm-3,,,
07-01-2008,19:00,0.3,R,mgm-3,23,R,ugm-3 (VCM),3,R,ugm-3,32,R,ugm-3,36,R,ugm-3,,,,,,,0,R,ugm-3,,,
07-01-2008,20:00,0.3,R,mgm-3,24,R,ugm-3 (VCM),4,R,ugm-3,32,R,ugm-3,38,R,ugm-3,,,,,,,0,R,ugm-3,,,
07-01-2008,21:00,0.3,R,mgm-3,27,R,ugm-3 (VCM),4,R,ugm-3,36,R,ugm-3,42,R,ugm-3,,,,,,,0,R,ugm-3,,,
07-01-2008,22:00,0.2,R,mgm-3,28,R,ugm-3 (VCM),3,R,ugm-3,29,R,ugm-3,32,R,ugm-3,,,,,,,0,R,ugm-3,,,
07-01-2008,23:00,0.2,R,mgm-3,28,R,ugm-3 (VCM),1,R,ugm-3,19,R,ugm-3,21,R,ugm-3,,,,,,,0,R,ugm-3,,,
07-01-2008,24:00,0.2,R,mgm-3,20,R,ugm-3 (VCM),3,R,ugm-3,17,R,ugm-3,21,R,ugm-3,,,,,,,0,R,ugm-3,,,
08-01-2008,01:00,0.2,R,mgm-3,21,R,ugm-3 (VCM),0,R,ugm-3,17,R,ugm-3,17,R,ugm-3,,,,,,,0,R,ugm-3,,,
08-01-2008,02:00,0.2,R,mgm-3,26,R,ugm-3 (VCM),0,R,ugm-3,11,R,ugm-3,11,R,ugm-3,,,,,,,0,R,ugm-3,,,
08-01-2008,03:00,0.2,R,mgm-3,21,R,ugm-3 (VCM),0,R,ugm-3,10,R,ugm-3,10,R,ugm-3,,,,,,,0,R,ugm-3,,,
08-01-2008,04:00,0.2,R,mgm-3,22,R,ugm-3 (VCM),3,R,ugm-3,13,R,ugm-3,17,R,ugm-3,,,,,,,0,R,ugm-3,,,
08-01-2008,05:00,0.2,R,mgm-3,22,R,ugm-3 (VCM),4,R,ugm-3,19,R,ugm-3,25,R,ugm-3,,,,,,,0,R,ugm-3,,,
08-01-2008,06:00,0.2,R,mgm-3,16,R,ugm-3 (VCM),8,R,ugm-3,36,R,ugm-3,48,R,ugm-3,,,,,,,0,R,ugm-3,,,
08-01-2008,07:00,0.2,R,mgm-3,15,R,ugm-3 (VCM),10,R,ugm-3,40,R,ugm-3,55,R,ugm-3,,,,,,,0,R,ugm-3,,,
08-01-2008,08:00,0.3,R,mgm-3,10,R,ugm-3 (VCM),16,R,ugm-3,53,R,ugm-3,78,R,ugm-3,,,,,,,0,R,ugm-3,,,
08-01-2008,09:00,0.3,R,mgm-3,18,R,ugm-3 (VCM),13,R,ugm-3,48,R,ugm-3,67,R,ugm-3,,,,,,,0,R,ugm-3,,,
08-01-2008,10:00,0.2,R,mgm-3,21,R,ugm-3 (VCM),21,R,ugm-3,46,R,ugm-3,78,R,ugm-3,,,,,,,0,R,ugm-3,,,
08-01-2008,11:00,0.2,R,mgm-3,18,R,ugm-3 (VCM),19,R,ugm-3,46,R,ugm-3,74,R,ugm-3,,,,,,,0,R,ugm-3,,,
08-01-2008,12:00,0.2,R,mgm-3,14,R,ugm-3 (VCM),14,R,ugm-3,34,R,ugm-3,55,R,ugm-3,,,,,,,0,R,ugm-3,,,
08-01-2008,13:00,0.2,R,mgm-3,16,R,ugm-3 (VCM),8,R,ugm-3,29,R,ugm-3,40,R,ugm-3,,,,,,,0,R,ugm-3,,,
08-01-2008,14:00,0.2,R,mgm-3,17,R,ugm-3 (VCM),14,R,ugm-3,31,R,ugm-3,52,R,ugm-3,,,,,,,0,R,ugm-3,,,
08-01-2008,15:00,0.2,R,mgm-3,16,R,ugm-3 (VCM),15,R,ugm-3,32,R,ugm-3,55,R,ugm-3,,,,,,,0,R,ugm-3,,,
08-01-2008,16:00,0.2,R,mgm-3,16,R,ugm-3 (VCM),9,R,ugm-3,25,R,ugm-3,38,R,ugm-3,,,,,,,3,R,ugm-3,,,
08-01-2008,17:00,0.2,R,mgm-3,16,R,ugm-3 (VCM),5,R,ugm-3,25,R,ugm-3,32,R,ugm-3,,,,,,,0,R,ugm-3,,,
08-01-2008,18:00,0.2,R,mgm-3,16,R,ugm-3 (VCM),3,R,ugm-3,19,R,ugm-3,23,R,ugm-3,,,,,,,0,R,ugm-3,,,
08-01-2008,19:00,0.2,R,mgm-3,15,R,ugm-3 (VCM),3,R,ugm-3,17,R,ugm-3,21,R,ugm-3,,,,,,,3,R,ugm-3,,,
08-01-2008,20:00,0.2,R,mgm-3,12,R,ugm-3 (VCM),1,R,ugm-3,13,R,ugm-3,15,R,ugm-3,,,,,,,3,R,ugm-3,,,
08-01-2008,21:00,0.2,R,mgm-3,12,R,ugm-3 (VCM),0,R,ugm-3,11,R,ugm-3,11,R,ugm-3,,,,,,,3,R,ugm-3,,,
08-01-2008,22:00,0.2,R,mgm-3,13,R,ugm-3 (VCM),0,R,ugm-3,10,R,ugm-3,10,R,ugm-3,,,,,,,3,R,ugm-3,,,
08-01-2008,23:00,0.2,R,mgm-3,15,R,ugm-3 (VCM),0,R,ugm-3,8,R,ugm-3,8,R,ugm-3,,,,,,,3,R,ugm-3,,,
08-01-2008,24:00,0.2,R,mgm-3,18,R,ugm-3 (VCM),0,R,ugm-3,6,R,ugm-3,6,R,ugm-3,,,,,,,3,R,ugm-3,,,
09-01-2008,01:00,0.1,R,mgm-3,-4,R,ugm-3 (VCM),1,R,ugm-3,8,R,ugm-3,10,R,ugm-3,,,,,,,3,R,ugm-3,,,
09-01-2008,02:00,0.1,R,mgm-3,-2,R,ugm-3 (VCM),1,R,ugm-3,6,R,ugm-3,8,R,ugm-3,,,,,,,0,R,ugm-3,,,
09-01-2008,03:00,0.1,R,mgm-3,4,R,ugm-3 (VCM),1,R,ugm-3,4,R,ugm-3,6,R,ugm-3,,,,,,,0,R,ugm-3,,,
09-01-2008,04:00,0.1,R,mgm-3,8,R,ugm-3 (VCM),1,R,ugm-3,4,R,ugm-3,6,R,ugm-3,,,,,,,0,R,ugm-3,,,
09-01-2008,05:00,0.1,R,mgm-3,6,R,ugm-3 (VCM),1,R,ugm-3,6,R,ugm-3,8,R,ugm-3,,,,,,,0,R,ugm-3,,,
09-01-2008,06:00,0.1,R,mgm-3,8,R,ugm-3 (VCM),3,R,ugm-3,13,R,ugm-3,17,R,ugm-3,,,,,,,0,R,ugm-3,,,
09-01-2008,07:00,0.1,R,mgm-3,11,R,ugm-3 (VCM),4,R,ugm-3,25,R,ugm-3,31,R,ugm-3,,,,,,,0,R,ugm-3,,,
09-01-2008,08:00,0.1,R,mgm-3,9,R,ugm-3 (VCM),4,R,ugm-3,27,R,ugm-3,32,R,ugm-3,,,,,,,0,R,ugm-3,,,
09-01-2008,09:00,0.2,R,mgm-3,15,R,ugm-3 (VCM),9,R,ugm-3,42,R,ugm-3,55,R,ugm-3,,,,,,,0,R,ugm-3,,,
09-01-2008,10:00,0.2,R,mgm-3,12,R,ugm-3 (VCM),18,R,ugm-3,48,R,ugm-3,74,R,ugm-3,,,,,,,0,R,ugm-3,,,
09-01-2008,11:00,0.1,R,mgm-3,11,R,ugm-3 (VCM),16,R,ugm-3,59,R,ugm-3,84,R,ugm-3,,,,,,,0,R,ugm-3,,,
09-01-2008,12:00,0.1,R,mgm-3,11,R,ugm-3 (VCM),10,R,ugm-3,27,R,ugm-3,42,R,ugm-3,,,,,,,0,R,ugm-3,,,
09-01-2008,13:00,0.1,R,mgm-3,11,R,ugm-3 (VCM),5,R,ugm-3,23,R,ugm-3,31,R,ugm-3,,,,,,,0,R,ugm-3,,,
09-01-2008,14:00,0.1,R,mgm-3,11,R,ugm-3 (VCM),11,R,ugm-3,23,R,ugm-3,40,R,ugm-3,,,,,,,0,R,ugm-3,,,
09-01-2008,15:00,0.1,R,mgm-3,14,R,ugm-3 (VCM),24,R,ugm-3,34,R,ugm-3,71,R,ugm-3,,,,,,,0,R,ugm-3,,,
09-01-2008,16:00,0.1,R,mgm-3,17,R,ugm-3 (VCM),10,R,ugm-3,38,R,ugm-3,53,R,ugm-3,,,,,,,3,R,ugm-3,,,
09-01-2008,17:00,0.1,R,mgm-3,17,R,ugm-3 (VCM),6,R,ugm-3,34,R,ugm-3,44,R,ugm-3,,,,,,,0,R,ugm-3,,,
09-01-2008,18:00,0.2,R,mgm-3,14,R,ugm-3 (VCM),6,R,ugm-3,36,R,ugm-3,46,R,ugm-3,,,,,,,0,R,ugm-3,,,
09-01-2008,19:00,0.2,R,mgm-3,14,R,ugm-3 (VCM),6,R,ugm-3,44,R,ugm-3,53,R,ugm-3,,,,,,,0,R,ugm-3,,,
09-01-2008,20:00,0.2,R,mgm-3,12,R,ugm-3 (VCM),4,R,ugm-3,32,R,ugm-3,38,R,ugm-3,,,,,,,0,R,ugm-3,,,
09-01-2008,21:00,0.1,R,mgm-3,16,R,ugm-3 (VCM),3,R,ugm-3,23,R,ugm-3,27,R,ugm-3,,,,,,,0,R,ugm-3,,,
09-01-2008,22:00,0.1,R,mgm-3,18,R,ugm-3 (VCM),1,R,ugm-3,15,R,ugm-3,17,R,ugm-3,,,,,,,0,R,ugm-3,,,
09-01-2008,23:00,0.1,R,mgm-3,16,R,ugm-3 (VCM),1,R,ugm-3,11,R,ugm-3,13,R,ugm-3,,,,,,,0,R,ugm-3,,,
09-01-2008,24:00,0.1,R,mgm-3,15,R,ugm-3 (VCM),1,R,ugm-3,8,R,ugm-3,10,R,ugm-3,,,,,,,0,R,ugm-3,,,
10-01-2008,01:00,0.1,R,mgm-3,16,R,ugm-3 (VCM),1,R,ugm-3,4,R,ugm-3,6,R,ugm-3,,,,,,,0,R,ugm-3,,,
10-01-2008,02:00,0.1,R,mgm-3,16,R,ugm-3 (VCM),1,R,ugm-3,4,R,ugm-3,6,R,ugm-3,,,,,,,0,R,ugm-3,,,
10-01-2008,03:00,0.1,R,mgm-3,16,R,ugm-3 (VCM),1,R,ugm-3,4,R,ugm-3,6,R,ugm-3,,,,,,,0,R,ugm-3,,,
10-01-2008,04:00,0.1,R,mgm-3,17,R,ugm-3 (VCM),3,R,ugm-3,6,R,ugm-3,10,R,ugm-3,,,,,,,0,R,ugm-3,,,
10-01-2008,05:00,0.1,R,mgm-3,17,R,ugm-3 (VCM),4,R,ugm-3,8,R,ugm-3,13,R,ugm-3,,,,,,,0,R,ugm-3,,,
10-01-2008,06:00,0.1,R,mgm-3,18,R,ugm-3 (VCM),5,R,ugm-3,13,R,ugm-3,21,R,ugm-3,,,,,,,3,R,ugm-3,,,
10-01-2008,07:00,0.1,R,mgm-3,14,R,ugm-3 (VCM),6,R,ugm-3,19,R,ugm-3,29,R,ugm-3,,,,,,,3,R,ugm-3,,,
10-01-2008,08:00,0.1,R,mgm-3,16,R,ugm-3 (VCM),8,R,ugm-3,23,R,ugm-3,34,R,ugm-3,,,,,,,3,R,ugm-3,,,
10-01-2008,09:00,0.1,R,mgm-3,14,R,ugm-3 (VCM),10,R,ugm-3,27,R,ugm-3,42,R,ugm-3,,,,,,,3,R,ugm-3,,,
10-01-2008,10:00,0.1,R,mgm-3,11,R,ugm-3 (VCM),11,R,ugm-3,25,R,ugm-3,42,R,ugm-3,,,,,,,3,R,ugm-3,,,
10-01-2008,11:00,0.1,R,mgm-3,9,R,ugm-3 (VCM),11,R,ugm-3,23,R,ugm-3,40,R,ugm-3,,,,,,,3,R,ugm-3,,,
10-01-2008,12:00,0.1,R,mgm-3,13,R,ugm-3 (VCM),10,R,ugm-3,19,R,ugm-3,34,R,ugm-3,,,,,,,3,R,ugm-3,,,
10-01-2008,13:00,0.1,R,mgm-3,14,R,ugm-3 (VCM),6,R,ugm-3,17,R,ugm-3,27,R,ugm-3,,,,,,,3,R,ugm-3,,,
10-01-2008,14:00,0.1,R,mgm-3,17,R,ugm-3 (VCM),13,R,ugm-3,21,R,ugm-3,40,R,ugm-3,,,,,,,3,R,ugm-3,,,
10-01-2008,15:00,0.1,R,mgm-3,12,R,ugm-3 (VCM),11,R,ugm-3,19,R,ugm-3,36,R,ugm-3,,,,,,,3,R,ugm-3,,,
10-01-2008,16:00,0.1,R,mgm-3,10,R,ugm-3 (VCM),18,R,ugm-3,25,R,ugm-3,52,R,ugm-3,,,,,,,5,R,ugm-3,,,
10-01-2008,17:00,0.1,R,mgm-3,14,R,ugm-3 (VCM),6,R,ugm-3,21,R,ugm-3,31,R,ugm-3,,,,,,,3,R,ugm-3,,,
10-01-2008,18:00,0.2,R,mgm-3,11,R,ugm-3 (VCM),4,R,ugm-3,21,R,ugm-3,27,R,ugm-3,,,,,,,3,R,ugm-3,,,
10-01-2008,19:00,0.1,R,mgm-3,10,R,ugm-3 (VCM),3,R,ugm-3,19,R,ugm-3,23,R,ugm-3,,,,,,,3,R,ugm-3,,,
10-01-2008,20:00,0.1,R,mgm-3,12,R,ugm-3 (VCM),3,R,ugm-3,21,R,ugm-3,25,R,ugm-3,,,,,,,3,R,ugm-3,,,
10-01-2008,21:00,0.1,R,mgm-3,14,R,ugm-3 (VCM),3,R,ugm-3,27,R,ugm-3,31,R,ugm-3,,,,,,,3,R,ugm-3,,,
10-01-2008,22:00,0.1,R,mgm-3,18,R,ugm-3 (VCM),3,R,ugm-3,25,R,ugm-3,29,R,ugm-3,,,,,,,3,R,ugm-3,,,
10-01-2008,23:00,0.2,R,mgm-3,18,R,ugm-3 (VCM),3,R,ugm-3,27,R,ugm-3,31,R,ugm-3,,,,,,,3,R,ugm-3,,,
10-01-2008,24:00,0.2,R,mgm-3,19,R,ugm-3 (VCM),3,R,ugm-3,32,R,ugm-3,36,R,ugm-3,,,,,,,3,R,ugm-3,,,
11-01-2008,01:00,0.2,R,mgm-3,17,R,ugm-3 (VCM),1,R,ugm-3,34,R,ugm-3,36,R,ugm-3,,,,,,,0,R,ugm-3,,,